Weather History for De Queen, AR

Change the Weather History Date:

Friday, May 10, 2013

  Actual Average Record
Temperature  
Mean Temperature 69 °F 68 °F  
Max Temperature 78 °F 80 °F 93 °F (1973)
Min Temperature 59 °F 57 °F 41 °F (1961)
Degree Days  
Heating Degree Days 0 1  
Month to date heating degree days 64 16  
Since 1 July heating degree days 3045 3037  
Cooling Degree Days 4 4  
Month to date cooling degree days 11 35  
Year to date cooling degree days 71 82  
Growing Degree Days 18 (Base 50)    
Moisture  
Dew Point 62 °F    
Average Humidity 82    
Maximum Humidity 100    
Minimum Humidity 64    
Precipitation  
Precipitation 0.12 in 0.19 in 3.18 in (2009)
Month to date precipitation 0.49 2.24  
Year to date precipitation 7.77 17.81  
Snow  
Snow 0.00 in - - ()
Month to date snowfall 0.0  
Since 1 July snowfall 4.5  
Snow Depth 0.00 in    
Sea Level Pressure  
Sea Level Pressure 29.92 in    
Wind  
Wind Speed 2 mph (West)    
Max Wind Speed 16 mph    
Max Gust Speed 22 mph    
Visibility 4 miles    
Events Fog , Rain    
T = Trace of Precipitation, MM = Missing Value Source: NWS Daily Summary

Daily Weather History Graph

Daily Weather History Graph

Search for Another Location

Airport:

Trip Planner

Search our weather history database for the weather conditions in past years. The results will help you decide how hot, cold, wet, or windy it might be!

Date:

Astronomy

May. 10, 2013 Rise Set
Actual Time 6:19 AM CDT 8:08 PM CDT
Civil Twilight 5:52 AM CDT 8:36 PM CDT
Nautical Twilight 5:19 AM CDT 9:09 PM CDT
Astronomical Twilight 4:44 AM CDT 9:44 PM CDT
Moon 6:44 AM CDT (5/10) 8:57 PM CDT (5/10)
Length of Visible Light 14h 43m
Length of Day
13h 48m
New Moon, 0% of the Moon is Illuminated
May 10
New Moon
May 17
First Quarter
May 24
Full
May 31
Last Quarter
Jun 8
New

Hourly Weather History & Observations

Time (CDT) Temp. Dew Point Humidity Pressure Visibility Wind Dir Wind Speed Gust Speed Precip Events Conditions
12:19 AM 63.0 °F 62.1 °F 97% 29.94 in 1.0 mi Calm Calm - N/A   Overcast
1:20 AM 63.0 °F 63.0 °F 100% 29.90 in 3.0 mi Calm Calm - 0.13 in   Overcast
1:28 AM 63.0 °F 63.0 °F 100% 29.89 in 2.5 mi Calm Calm - 0.13 in   Mostly Cloudy
1:50 AM 62.6 °F 62.6 °F 100% 29.90 in 1.8 mi Calm Calm - 0.13 in   Mostly Cloudy
1:53 AM 63.0 °F 62.1 °F 97% 29.89 in 1.8 mi Calm Calm - 0.13 in   Mostly Cloudy
2:09 AM 63.0 °F 63.0 °F 100% 29.89 in 2.5 mi Calm Calm - N/A   Overcast
2:18 AM 64.0 °F 63.0 °F 96% 29.89 in 3.0 mi Calm Calm - N/A   Overcast
2:32 AM 63.0 °F 62.1 °F 97% 29.89 in 1.8 mi Calm Calm - 0.00 in Rain Light Rain
2:53 AM 63.0 °F 63.0 °F 100% 29.88 in 1.5 mi Calm Calm - 0.03 in Rain Rain
3:04 AM 64.0 °F 63.0 °F 96% 29.89 in 3.0 mi Calm Calm - 0.00 in Rain Light Rain
3:24 AM 63.0 °F 62.1 °F 97% 29.90 in 1.8 mi West 3.5 mph - 0.00 in   Mostly Cloudy
3:39 AM 63.0 °F 62.1 °F 97% 29.89 in 0.8 mi Calm Calm - 0.00 in   Mostly Cloudy
3:50 AM 62.6 °F 62.6 °F 100% 29.89 in 0.2 mi Calm Calm - 0.00 in Fog Fog
3:53 AM 63.0 °F 62.1 °F 97% 29.88 in 0.2 mi Calm Calm - 0.00 in Fog Fog
4:01 AM 62.1 °F 61.0 °F 96% 29.89 in 0.2 mi Calm Calm - N/A Fog Fog
4:08 AM 62.1 °F 62.1 °F 100% 29.89 in 0.2 mi Calm Calm - N/A Fog Fog
4:19 AM 63.0 °F 62.1 °F 97% 29.89 in 1.0 mi Calm Calm - N/A   Overcast
4:28 AM 63.0 °F 62.1 °F 97% 29.89 in 2.5 mi Calm Calm - N/A   Overcast
4:39 AM 63.0 °F 62.1 °F 97% 29.89 in 1.5 mi Calm Calm - N/A   Overcast
4:53 AM 63.0 °F 62.1 °F 97% 29.89 in 2.0 mi Calm Calm - N/A   Overcast
5:07 AM 62.1 °F 62.1 °F 100% 29.89 in 1.0 mi Calm Calm - N/A   Overcast
5:16 AM 62.1 °F 61.0 °F 96% 29.88 in 0.8 mi Calm Calm - N/A   Overcast
5:28 AM 62.1 °F 61.0 °F 96% 29.89 in 0.2 mi Calm Calm - N/A Fog Fog
5:53 AM 61.0 °F 60.1 °F 97% 29.89 in 0.2 mi Calm Calm - N/A Fog Fog
6:49 AM 62.6 °F 60.8 °F 94% 29.95 in 0.5 mi Calm Calm - N/A Fog Fog
6:50 AM 62.1 °F 61.0 °F 96% 29.94 in 0.5 mi Calm Calm - N/A Fog Fog
7:02 AM 61.0 °F 61.0 °F 100% 29.95 in 0.8 mi Calm Calm - N/A   Overcast
7:11 AM 61.0 °F 61.0 °F 100% 29.95 in 1.5 mi SW 3.5 mph - N/A   Mostly Cloudy
7:18 AM 61.0 °F 61.0 °F 100% 29.95 in 2.0 mi Calm Calm - N/A   Mostly Cloudy
7:28 AM 62.1 °F 61.0 °F 96% 29.95 in 1.8 mi Calm Calm - N/A   Scattered Clouds
8:05 AM 62.1 °F 62.1 °F 100% 29.95 in 2.0 mi Calm Calm - N/A   Mostly Cloudy
8:17 AM 63.0 °F 63.0 °F 100% 29.95 in 3.0 mi Calm Calm - N/A   Mostly Cloudy
8:53 AM 66.0 °F 64.9 °F 96% 29.94 in 5.0 mi West 3.5 mph - N/A   Overcast
9:05 AM 64.9 °F 64.0 °F 97% 29.95 in 6.0 mi Calm Calm - N/A   Overcast
9:53 AM 68.0 °F 64.9 °F 90% 29.94 in 6.0 mi SW 5.8 mph - N/A   Overcast
10:01 AM 68.0 °F 64.9 °F 90% 29.95 in 7.0 mi SSW 3.5 mph - N/A   Overcast
10:53 AM 70.0 °F 64.9 °F 84% 29.95 in 8.0 mi SW 3.5 mph - N/A   Partly Cloudy
12:53 PM 73.0 °F 64.9 °F 76% 29.92 in 9.0 mi Calm Calm - N/A   Partly Cloudy
1:53 PM 75.9 °F 64.0 °F 67% 29.92 in 10.0 mi Variable 3.5 mph - N/A   Scattered Clouds
2:53 PM 75.9 °F 63.0 °F 64% 29.91 in 10.0 mi Variable 3.5 mph - N/A   Mostly Cloudy
3:53 PM 70.0 °F 62.1 °F 76% 29.92 in 5.0 mi NNW 6.9 mph - 0.00 in Rain Light Rain
4:53 PM 73.9 °F 62.1 °F 66% 29.89 in 10.0 mi NNW 4.6 mph - 0.00 in   Scattered Clouds
5:53 PM 75.0 °F 62.1 °F 64% 29.88 in 10.0 mi NW 4.6 mph - N/A   Scattered Clouds
6:53 PM 75.9 °F 63.0 °F 64% 29.88 in 10.0 mi North 4.6 mph - N/A   Clear
7:53 PM 73.0 °F 63.0 °F 71% 29.90 in 10.0 mi Calm Calm - N/A   Clear
8:53 PM 66.0 °F 62.1 °F 87% 29.93 in 10.0 mi Calm Calm - N/A   Clear
9:53 PM 63.0 °F 61.0 °F 93% 29.97 in 8.0 mi West 3.5 mph - N/A   Clear
10:53 PM 62.1 °F 60.1 °F 93% 30.00 in 6.0 mi Calm Calm - N/A   Clear
11:53 PM 62.1 °F 59.0 °F 90% 30.00 in 8.0 mi SE 3.5 mph - N/A   Clear